| time (UTC) | temp F | wind direction | speed MPH | gust MPH | rain 1hr in | rain 24hr in | rain mn in | humidity % | barometer mb |
| 20260505000054 | 68 | 228 | 4.0 | 14.0 | 0.00 | 0.00 | 0.00 | 42 | 1006.4 |
| 20260504234536 | 69 | 192 | 5.0 | 10.0 | 0.00 | 0.00 | 0.00 | 44 | 1006.3 |
| 20260504233008 | 70 | 238 | 3.0 | 11.0 | 0.00 | 0.00 | 0.00 | 43 | 1006.1 |
| 20260504231543 | 70 | 224 | 4.0 | 12.0 | 0.00 | 0.00 | 0.00 | 44 | 1006.0 |
| 20260504230034 | 70 | 220 | 7.0 | 13.0 | 0.00 | 0.00 | 0.00 | 43 | 1005.8 |
| 20260504224543 | 70 | 218 | 7.0 | 16.0 | 0.00 | 0.00 | 0.00 | 42 | 1006.0 |
| 20260504223016 | 71 | 175 | 5.0 | 15.0 | 0.00 | 0.00 | 0.00 | 43 | 1005.9 |
| 20260504221555 | 71 | 240 | 6.0 | 16.0 | 0.00 | 0.00 | 0.00 | 42 | 1005.8 |
| 20260504220010 | 73 | 233 | 4.0 | 13.0 | 0.00 | 0.00 | 0.00 | 40 | 1005.7 |
| 20260504214547 | 73 | 235 | 7.0 | 13.0 | 0.00 | 0.00 | 0.00 | 39 | 1005.8 |
| 20260504213046 | 73 | 128 | 4.0 | 17.0 | 0.00 | 0.00 | 0.00 | 37 | 1005.7 |
| 20260504211502 | 73 | 174 | 6.0 | 13.0 | 0.00 | 0.00 | 0.00 | 37 | 1005.9 |
| 20260504210042 | 72 | 269 | 6.0 | 15.0 | 0.00 | 0.00 | 0.00 | 36 | 1005.9 |
| 20260504204606 | 72 | 215 | 5.0 | 18.0 | 0.00 | 0.00 | 0.00 | 35 | 1006.1 |
| 20260504204502 | 72 | 247 | 6.0 | 18.0 | 0.00 | 0.00 | 0.00 | 36 | 1006.1 |
| 20260504203048 | 72 | 231 | 7.0 | 15.0 | 0.00 | 0.00 | 0.00 | 39 | 1006.2 |
| 20260504201558 | 70 | 262 | 6.0 | 15.0 | 0.00 | 0.00 | 0.00 | 39 | 1006.3 |
| 20260504201501 | 70 | 226 | 6.0 | 15.0 | 0.00 | 0.00 | 0.00 | 38 | 1006.3 |
| 20260504200038 | 71 | 261 | 10.0 | 19.0 | 0.00 | 0.00 | 0.00 | 38 | 1006.5 |
| 20260504194559 | 72 | 238 | 4.0 | 17.0 | 0.00 | 0.00 | 0.00 | 36 | 1006.7 |
| 20260504193036 | 72 | 244 | 11.0 | 18.0 | 0.00 | 0.00 | 0.00 | 35 | 1006.9 |
| 20260504191550 | 71 | 135 | 9.0 | 16.0 | 0.00 | 0.00 | 0.00 | 34 | 1007.3 |
| 20260504190033 | 71 | 217 | 8.0 | 18.0 | 0.00 | 0.00 | 0.00 | 36 | 1007.3 |
| 20260504184550 | 70 | 236 | 9.0 | 21.0 | 0.00 | 0.00 | 0.00 | 35 | 1007.5 |
| 20260504183033 | 70 | 278 | 11.0 | 21.0 | 0.00 | 0.00 | 0.00 | 35 | 1007.9 |
| 20260504181517 | 70 | 238 | 6.0 | 19.0 | 0.00 | 0.00 | 0.00 | 38 | 1008.1 |
| 20260504180050 | 69 | 209 | 6.0 | 16.0 | 0.00 | 0.00 | 0.00 | 42 | 1008.2 |
| 20260504174512 | 68 | 132 | 8.0 | 15.0 | 0.00 | 0.00 | 0.00 | 44 | 1008.3 |
| 20260504173048 | 69 | 240 | 8.0 | 16.0 | 0.00 | 0.00 | 0.00 | 41 | 1008.7 |
| 20260504171601 | 68 | 216 | 7.0 | 15.0 | 0.00 | 0.00 | 0.00 | 41 | 1009.0 |
| 20260504171502 | 68 | 242 | 6.0 | 15.0 | 0.00 | 0.00 | 0.00 | 42 | 1009.0 |
| 20260504081517 | 35 | 203 | 0.0 | 2.0 | 0.00 | 0.00 | 0.00 | 84 | 1012.7 |
| 20260504044517 | 40 | 256 | 0.0 | 1.0 | 0.00 | 0.00 | 0.00 | 71 | 1013.4 |
| 20260504043042 | 41 | 256 | 0.0 | 1.0 | 0.00 | 0.00 | 0.00 | 68 | 1013.3 |
| 20260504041521 | 41 | 259 | 2.0 | 3.0 | 0.00 | 0.00 | 0.00 | 68 | 1013.3 |
| 20260504040100 | 41 | 193 | 0.0 | 0.0 | 0.00 | 0.00 | 0.00 | 67 | 1013.4 |
| 20260504034516 | 41 | 193 | 0.0 | 0.0 | 0.00 | 0.00 | 0.00 | 66 | 1013.2 |
| 20260504033036 | 42 | 193 | 0.0 | 1.0 | 0.00 | 0.00 | 0.00 | 64 | 1013.3 |
| 20260504031514 | 43 | 208 | 0.0 | 2.0 | 0.00 | 0.00 | 0.00 | 64 | 1013.2 |
| 20260504030036 | 43 | 205 | 0.0 | 1.0 | 0.00 | 0.00 | 0.00 | 65 | 1013.2 |
| 20260504024515 | 43 | 205 | 0.0 | 1.0 | 0.00 | 0.00 | 0.00 | 65 | 1013.3 |
| 20260504023038 | 42 | 205 | 0.0 | 1.0 | 0.00 | 0.00 | 0.00 | 66 | 1013.3 |
| 20260504021520 | 43 | 205 | 0.0 | 1.0 | 0.00 | 0.00 | 0.00 | 65 | 1013.4 |
| 20260504020046 | 43 | 205 | 0.0 | 1.0 | 0.00 | 0.00 | 0.00 | 63 | 1013.4 |
| 20260504014525 | 44 | 205 | 0.0 | 0.0 | 0.00 | 0.00 | 0.00 | 59 | 1013.2 |
| 20260504013044 | 45 | 205 | 0.0 | 0.0 | 0.00 | 0.00 | 0.00 | 55 | 1013.2 |
| 20260504011524 | 47 | 205 | 0.0 | 2.0 | 0.00 | 0.00 | 0.00 | 51 | 1013.0 |
| 20260504010052 | 49 | 212 | 0.0 | 2.0 | 0.00 | 0.00 | 0.00 | 49 | 1013.1 |
| 20260504004542 | 50 | 207 | 0.0 | 4.0 | 0.00 | 0.00 | 0.00 | 47 | 1012.9 |
| 20260504003100 | 51 | 226 | 4.0 | 11.0 | 0.00 | 0.00 | 0.00 | 46 | 1012.8 |
| 20260504001526 | 52 | 238 | 4.0 | 11.0 | 0.00 | 0.00 | 0.00 | 44 | 1012.7 |